| time (UTC) | temp F | wind direction | speed MPH | gust MPH | rain 1hr in | rain 24hr in | rain mn in | humidity % | barometer mb |
| 20260505120025 | 61 | 239 | 0.0 | 0.0 | 0.00 | 0.00 | 0.00 | ||
| 20260505115003 | 60 | 239 | 0.0 | 0.0 | 0.00 | 0.00 | 0.00 | ||
| 20260505114002 | 60 | 239 | 0.0 | 0.0 | 0.00 | 0.00 | 0.00 | ||
| 20260505113025 | 61 | 255 | 1.0 | 6.0 | 0.00 | 0.00 | 0.00 | ||
| 20260505112003 | 61 | 264 | 1.0 | 8.0 | 0.00 | 0.00 | 0.00 | ||
| 20260505111002 | 61 | 316 | 3.0 | 8.0 | 0.00 | 0.00 | 0.00 | ||
| 20260505102004 | 60 | 225 | 1.0 | 7.0 | 0.00 | 0.00 | 0.00 | ||
| 20260505101003 | 60 | 228 | 1.0 | 7.0 | 0.00 | 0.00 | 0.00 | ||
| 20260505100002 | 60 | 202 | 3.0 | 7.0 | 0.00 | 0.00 | 0.00 | ||
| 20260505095003 | 60 | 201 | 2.0 | 6.0 | 0.00 | 0.00 | 0.00 | ||
| 20260505094003 | 60 | 224 | 1.0 | 8.0 | 0.00 | 0.00 | 0.00 | ||
| 20260505093003 | 60 | 200 | 1.0 | 7.0 | 0.00 | 0.00 | 0.00 | ||
| 20260505092003 | 61 | 163 | 2.0 | 10.0 | 0.00 | 0.00 | 0.00 | ||
| 20260505091002 | 61 | 197 | 0.0 | 7.0 | 0.00 | 0.00 | 0.00 | ||
| 20260505090003 | 61 | 205 | 4.0 | 10.0 | 0.00 | 0.00 | 0.00 | ||
| 20260505085024 | 62 | 155 | 0.0 | 10.0 | 0.00 | 0.00 | 0.00 | ||
| 20260505083003 | 62 | 180 | 2.0 | 9.0 | 0.00 | 0.00 | 0.00 | ||
| 20260505082003 | 63 | 202 | 4.0 | 12.0 | 0.00 | 0.00 | 0.00 | ||
| 20260505081002 | 63 | 188 | 4.0 | 13.0 | 0.00 | 0.00 | 0.00 | ||
| 20260505080003 | 63 | 197 | 3.0 | 10.0 | 0.00 | 0.00 | 0.00 | ||
| 20260505075002 | 63 | 193 | 3.0 | 11.0 | 0.00 | 0.00 | 0.00 | ||
| 20260505074024 | 63 | 214 | 5.0 | 11.0 | 0.00 | 0.00 | 0.00 | ||
| 20260505073003 | 63 | 167 | 2.0 | 10.0 | 0.00 | 0.00 | 0.00 | ||
| 20260505071003 | 63 | 190 | 4.0 | 11.0 | 0.00 | 0.00 | 0.00 | ||
| 20260505070002 | 63 | 165 | 5.0 | 11.0 | 0.00 | 0.00 | 0.00 | ||
| 20260505065003 | 63 | 172 | 4.0 | 12.0 | 0.00 | 0.00 | 0.00 | ||
| 20260505064002 | 63 | 176 | 4.0 | 11.0 | 0.00 | 0.00 | 0.00 | ||
| 20260505063003 | 63 | 180 | 5.0 | 12.0 | 0.00 | 0.00 | 0.00 | ||
| 20260505062023 | 63 | 174 | 7.0 | 12.0 | 0.00 | 0.00 | 0.00 | ||
| 20260505061004 | 63 | 200 | 4.0 | 12.0 | 0.00 | 0.00 | 0.00 | ||
| 20260505060004 | 63 | 166 | 5.0 | 12.0 | 0.00 | 0.00 | 0.00 | ||
| 20260505055045 | 63 | 174 | 5.0 | 12.0 | 0.00 | 0.00 | 0.00 | ||
| 20260505054002 | 63 | 183 | 4.0 | 10.0 | 0.00 | 0.00 | 0.00 | ||
| 20260505053004 | 63 | 170 | 4.0 | 10.0 | 0.00 | 0.00 | 0.00 | ||
| 20260505052003 | 63 | 185 | 3.0 | 10.0 | 0.00 | 0.00 | 0.00 | ||
| 20260505051004 | 63 | 170 | 4.0 | 8.0 | 0.00 | 0.00 | 0.00 | ||
| 20260505041002 | 63 | 208 | 2.0 | 8.0 | 0.00 | 0.00 | 0.00 | ||
| 20260505040005 | 63 | 173 | 1.0 | 7.0 | 0.00 | 0.00 | 0.00 | ||
| 20260505035002 | 63 | 172 | 2.0 | 8.0 | 0.00 | 0.00 | 0.00 | ||
| 20260505034003 | 63 | 198 | 2.0 | 6.0 | 0.00 | 0.00 | 0.00 | ||
| 20260505033003 | 63 | 177 | 4.0 | 8.0 | 0.00 | 0.00 | 0.00 | ||
| 20260505032003 | 63 | 166 | 3.0 | 7.0 | 0.00 | 0.00 | 0.00 | ||
| 20260505031024 | 64 | 149 | 1.0 | 8.0 | 0.00 | 0.00 | 0.00 | ||
| 20260505030004 | 64 | 180 | 1.0 | 7.0 | 0.00 | 0.00 | 0.00 | ||
| 20260505025004 | 64 | 192 | 1.0 | 6.0 | 0.00 | 0.00 | 0.00 | ||
| 20260505024003 | 65 | 173 | 1.0 | 10.0 | 0.00 | 0.00 | 0.00 | ||
| 20260505023003 | 65 | 179 | 3.0 | 8.0 | 0.00 | 0.00 | 0.00 | ||
| 20260505022003 | 65 | 161 | 5.0 | 10.0 | 0.00 | 0.00 | 0.00 | ||
| 20260505021003 | 65 | 162 | 4.0 | 9.0 | 0.00 | 0.00 | 0.00 | ||
| 20260505020003 | 65 | 147 | 4.0 | 7.0 | 0.00 | 0.00 | 0.00 | ||
| 20260505015003 | 65 | 156 | 2.0 | 6.0 | 0.00 | 0.00 | 0.00 | ||
| 20260505014003 | 65 | 166 | 4.0 | 8.0 | 0.00 | 0.00 | 0.00 | ||
| 20260505013003 | 66 | 154 | 1.0 | 7.0 | 0.00 | 0.00 | 0.00 | ||
| 20260505012045 | 66 | 151 | 0.0 | 7.0 | 0.00 | 0.00 | 0.00 | ||
| 20260505011003 | 66 | 186 | 0.0 | 6.0 | 0.00 | 0.00 | 0.00 | ||
| 20260505010002 | 66 | 173 | 2.0 | 7.0 | 0.00 | 0.00 | 0.00 | ||
| 20260505005003 | 67 | 170 | 0.0 | 4.0 | 0.00 | 0.00 | 0.00 | ||
| 20260505004003 | 68 | 198 | 0.0 | 6.0 | 0.00 | 0.00 | 0.00 | ||
| 20260505003002 | 69 | 203 | 0.0 | 8.0 | 0.00 | 0.00 | 0.00 | ||
| 20260505002003 | 70 | 180 | 2.0 | 8.0 | 0.00 | 0.00 | 0.00 | ||
| 20260505001003 | 71 | 144 | 0.0 | 8.0 | 0.00 | 0.00 | 0.00 | ||
| 20260505000045 | 72 | 183 | 2.0 | 8.0 | 0.00 | 0.00 | 0.00 | ||
| 20260504235003 | 73 | 174 | 2.0 | 10.0 | 0.00 | 0.00 | 0.00 | ||
| 20260504234003 | 74 | 203 | 2.0 | 13.0 | 0.00 | 0.00 | 0.00 | ||
| 20260504233002 | 74 | 211 | 4.0 | 12.0 | 0.00 | 0.00 | 0.00 | ||
| 20260504232024 | 75 | 188 | 1.0 | 10.0 | 0.00 | 0.00 | 0.00 | ||
| 20260504231003 | 76 | 198 | 4.0 | 10.0 | 0.00 | 0.00 | 0.00 | ||
| 20260504230003 | 77 | 215 | 4.0 | 13.0 | 0.00 | 0.00 | 0.00 | ||
| 20260504225002 | 79 | 212 | 5.0 | 18.0 | 0.00 | 0.00 | 0.00 | ||
| 20260504224002 | 79 | 238 | 1.0 | 10.0 | 0.00 | 0.00 | 0.00 | ||
| 20260504223003 | 79 | 216 | 8.0 | 15.0 | 0.00 | 0.00 | 0.00 | ||
| 20260504222003 | 82 | 223 | 6.0 | 19.0 | 0.00 | 0.00 | 0.00 | ||
| 20260504221002 | 83 | 232 | 7.0 | 16.0 | 0.00 | 0.00 | 0.00 | ||
| 20260504220004 | 83 | 227 | 4.0 | 14.0 | 0.00 | 0.00 | 0.00 | ||
| 20260504215003 | 83 | 169 | 2.0 | 14.0 | 0.00 | 0.00 | 0.00 | ||
| 20260504214003 | 81 | 235 | 1.0 | 13.0 | 0.00 | 0.00 | 0.00 | ||
| 20260504213003 | 86 | 246 | 6.0 | 14.0 | 0.00 | 0.00 | 0.00 | ||
| 20260504212002 | 85 | 178 | 4.0 | 15.0 | 0.00 | 0.00 | 0.00 | ||
| 20260504211003 | 82 | 253 | 4.0 | 10.0 | 0.00 | 0.00 | 0.00 | ||
| 20260504210004 | 86 | 226 | 6.0 | 13.0 | 0.00 | 0.00 | 0.00 | ||
| 20260504205003 | 86 | 272 | 6.0 | 14.0 | 0.00 | 0.00 | 0.00 | ||
| 20260504204002 | 84 | 178 | 5.0 | 14.0 | 0.00 | 0.00 | 0.00 | ||
| 20260504203003 | 85 | 237 | 4.0 | 12.0 | 0.00 | 0.00 | 0.00 | ||
| 20260504202002 | 85 | 222 | 6.0 | 19.0 | 0.00 | 0.00 | 0.00 | ||
| 20260504201003 | 84 | 242 | 4.0 | 16.0 | 0.00 | 0.00 | 0.00 | ||
| 20260504200003 | 84 | 200 | 5.0 | 14.0 | 0.00 | 0.00 | 0.00 | ||
| 20260504195003 | 84 | 266 | 4.0 | 12.0 | 0.00 | 0.00 | 0.00 | ||
| 20260504194003 | 82 | 228 | 6.0 | 19.0 | 0.00 | 0.00 | 0.00 | ||
| 20260504193002 | 82 | 232 | 5.0 | 14.0 | 0.00 | 0.00 | 0.00 | ||
| 20260504192004 | 81 | 239 | 6.0 | 15.0 | 0.00 | 0.00 | 0.00 | ||
| 20260504191003 | 81 | 263 | 4.0 | 17.0 | 0.00 | 0.00 | 0.00 | ||
| 20260504190025 | 81 | 177 | 4.0 | 17.0 | 0.00 | 0.00 | 0.00 | ||
| 20260504185002 | 79 | 186 | 7.0 | 16.0 | 0.00 | 0.00 | 0.00 | ||
| 20260504184003 | 76 | 239 | 5.0 | 18.0 | 0.00 | 0.00 | 0.00 | ||
| 20260504183003 | 75 | 241 | 7.0 | 16.0 | 0.00 | 0.00 | 0.00 | ||
| 20260504182024 | 75 | 204 | 7.0 | 14.0 | 0.00 | 0.00 | 0.00 | ||
| 20260504181002 | 75 | 232 | 5.0 | 18.0 | 0.00 | 0.00 | 0.00 | ||
| 20260504180003 | 74 | 216 | 8.0 | 15.0 | 0.00 | 0.00 | 0.00 | ||
| 20260504175004 | 73 | 164 | 6.0 | 16.0 | 0.00 | 0.00 | 0.00 | ||
| 20260504174002 | 73 | 212 | 6.0 | 15.0 | 0.00 | 0.00 | 0.00 | ||
| 20260504173003 | 72 | 232 | 4.0 | 14.0 | 0.00 | 0.00 | 0.00 | ||
| 20260504172003 | 72 | 208 | 8.0 | 15.0 | 0.00 | 0.00 | 0.00 | ||
| 20260504171003 | 71 | 185 | 4.0 | 16.0 | 0.00 | 0.00 | 0.00 | ||
| 20260504151004 | 60 | 200 | 4.0 | 17.0 | 0.00 | 0.00 | 0.00 | ||
| 20260504141002 | 55 | 173 | 7.0 | 15.0 | 0.00 | 0.00 | 0.00 |